| time (UTC) | temp F | wind direction | speed knots | gust knots | rain 1hr in | rain 24hr in | rain mn in | humidity % | barometer mb |
| 20260831161030 | 67 | 276 | 0.9 | 1.7 | 0.00 | 0.00 | 0.00 | 51 | 1015.0 |
| 20260831160029 | 64 | 0.0 | 0.0 | 0.00 | 0.00 | 0.00 | 54 | 1015.1 | |
| 20260831155031 | 62 | 281 | 0.9 | 2.6 | 0.00 | 0.00 | 0.00 | 61 | 1015.0 |
| 20260831154031 | 60 | 281 | 1.7 | 1.7 | 0.00 | 0.00 | 0.00 | 63 | 1015.1 |
| 20260831153031 | 60 | 270 | 0.9 | 1.7 | 0.00 | 0.00 | 0.00 | 61 | 1015.1 |
| 20260831152031 | 60 | 0.0 | 0.0 | 0.00 | 0.00 | 0.00 | 60 | 1015.1 | |
| 20260831151030 | 60 | 0.0 | 0.0 | 0.00 | 0.00 | 0.00 | 62 | 1015.1 | |
| 20260831150030 | 59 | 0.0 | 0.0 | 0.00 | 0.00 | 0.00 | 68 | 1015.2 | |
| 20260831145050 | 57 | 0.0 | 0.0 | 0.00 | 0.00 | 0.00 | 78 | 1015.1 | |
| 20260831144030 | 55 | 0.0 | 0.0 | 0.00 | 0.00 | 0.00 | 81 | 1015.0 | |
| 20260831143052 | 53 | 0.0 | 0.0 | 0.00 | 0.00 | 0.00 | 83 | 1015.0 | |
| 20260831142032 | 50 | 0.0 | 0.0 | 0.00 | 0.00 | 0.00 | 85 | 1015.0 | |
| 20260831141053 | 48 | 0.0 | 0.0 | 0.00 | 0.00 | 0.00 | 86 | 1014.9 | |
| 20260831140032 | 46 | 0.0 | 0.0 | 0.00 | 0.00 | 0.00 | 86 | 1014.9 | |
| 20260831135032 | 46 | 0.0 | 0.0 | 0.00 | 0.00 | 0.00 | 86 | 1014.8 | |
| 20260831134030 | 45 | 0.0 | 0.0 | 0.00 | 0.00 | 0.00 | 85 | 1014.8 | |
| 20260831133032 | 44 | 0.0 | 0.0 | 0.00 | 0.00 | 0.00 | 85 | 1014.8 | |
| 20260831132031 | 44 | 0.0 | 0.0 | 0.00 | 0.00 | 0.00 | 85 | 1014.7 | |
| 20260831131532 | 44 | 0.0 | 0.0 | 0.00 | 0.00 | 0.00 | 84 | 1014.7 | |
| 20260831130531 | 44 | 0.0 | 0.0 | 0.00 | 0.00 | 0.00 | 84 | 1014.7 | |
| 20260831125531 | 44 | 0.0 | 0.0 | 0.00 | 0.00 | 0.00 | 84 | 1014.6 | |
| 20260831124533 | 44 | 0.0 | 0.0 | 0.00 | 0.00 | 0.00 | 84 | 1014.6 | |
| 20260831123531 | 44 | 0.0 | 0.0 | 0.00 | 0.00 | 0.00 | 84 | 1014.5 | |
| 20260831122532 | 45 | 0.0 | 0.0 | 0.00 | 0.00 | 0.00 | 84 | 1014.5 | |
| 20260831121533 | 45 | 0.0 | 0.0 | 0.00 | 0.00 | 0.00 | 83 | 1014.5 | |
| 20260831120532 | 45 | 0.0 | 0.0 | 0.00 | 0.00 | 0.00 | 83 | 1014.5 | |
| 20260831115552 | 45 | 0.0 | 0.0 | 0.00 | 0.00 | 0.00 | 82 | 1014.5 | |
| 20260831114532 | 46 | 0.0 | 0.0 | 0.00 | 0.00 | 0.00 | 82 | 1014.5 | |
| 20260831113534 | 46 | 0.0 | 0.0 | 0.00 | 0.00 | 0.00 | 82 | 1014.4 | |
| 20260831112532 | 46 | 0.0 | 0.0 | 0.00 | 0.00 | 0.00 | 82 | 1014.4 | |
| 20260831111532 | 46 | 0.0 | 0.0 | 0.00 | 0.00 | 0.00 | 82 | 1014.4 | |
| 20260831110533 | 46 | 0.0 | 0.0 | 0.00 | 0.00 | 0.00 | 81 | 1014.4 | |
| 20260831105532 | 46 | 0.0 | 0.0 | 0.00 | 0.00 | 0.00 | 81 | 1014.4 | |
| 20260831104532 | 47 | 0.0 | 0.0 | 0.00 | 0.00 | 0.00 | 81 | 1014.4 | |
| 20260831103554 | 47 | 0.0 | 0.0 | 0.00 | 0.00 | 0.00 | 81 | 1014.3 | |
| 20260831102554 | 47 | 0.0 | 0.0 | 0.00 | 0.00 | 0.00 | 81 | 1014.3 | |
| 20260831101534 | 47 | 0.0 | 0.0 | 0.00 | 0.00 | 0.00 | 80 | 1014.2 | |
| 20260831100535 | 47 | 0.0 | 0.0 | 0.00 | 0.00 | 0.00 | 80 | 1014.3 | |
| 20260831095533 | 47 | 0.0 | 0.0 | 0.00 | 0.00 | 0.00 | 79 | 1014.4 | |
| 20260831094533 | 48 | 0.0 | 0.0 | 0.00 | 0.00 | 0.00 | 79 | 1014.5 | |
| 20260831093533 | 48 | 0.0 | 0.0 | 0.00 | 0.00 | 0.00 | 78 | 1014.6 | |
| 20260831092533 | 49 | 0.0 | 0.0 | 0.00 | 0.00 | 0.00 | 77 | 1014.6 | |
| 20260831091534 | 49 | 0.0 | 0.0 | 0.00 | 0.00 | 0.00 | 77 | 1014.7 | |
| 20260831090534 | 49 | 0.0 | 0.0 | 0.00 | 0.00 | 0.00 | 76 | 1014.7 | |
| 20260831085534 | 49 | 0.0 | 0.0 | 0.00 | 0.00 | 0.00 | 76 | 1014.7 | |
| 20260831084534 | 50 | 0.0 | 0.0 | 0.00 | 0.00 | 0.00 | 75 | 1014.6 | |
| 20260831083534 | 50 | 0.0 | 0.0 | 0.00 | 0.00 | 0.00 | 75 | 1014.6 | |
| 20260831082534 | 50 | 0.0 | 0.0 | 0.00 | 0.00 | 0.00 | 74 | 1014.6 | |
| 20260831081616 | 51 | 0.0 | 0.0 | 0.00 | 0.00 | 0.00 | 73 | 1014.6 | |
| 20260831080536 | 51 | 0.0 | 0.0 | 0.00 | 0.00 | 0.00 | 72 | 1014.7 | |
| 20260831075535 | 51 | 0.0 | 0.0 | 0.00 | 0.00 | 0.00 | 71 | 1014.7 | |
| 20260831074534 | 52 | 0.0 | 0.0 | 0.00 | 0.00 | 0.00 | 70 | 1014.7 | |
| 20260831073535 | 52 | 0.0 | 0.0 | 0.00 | 0.00 | 0.00 | 70 | 1014.7 | |
| 20260831072556 | 52 | 0.0 | 0.0 | 0.00 | 0.00 | 0.00 | 70 | 1014.7 | |
| 20260831071535 | 52 | 0.0 | 0.0 | 0.00 | 0.00 | 0.00 | 71 | 1014.8 | |
| 20260831070536 | 52 | 0.0 | 0.0 | 0.00 | 0.00 | 0.00 | 70 | 1014.8 | |
| 20260831065535 | 53 | 0.0 | 0.0 | 0.00 | 0.00 | 0.00 | 70 | 1014.8 | |
| 20260831064535 | 53 | 0.0 | 0.0 | 0.00 | 0.00 | 0.00 | 69 | 1014.7 | |
| 20260831063536 | 53 | 0.0 | 0.0 | 0.00 | 0.00 | 0.00 | 67 | 1014.7 | |
| 20260831062537 | 54 | 0.0 | 0.0 | 0.00 | 0.00 | 0.00 | 67 | 1014.7 | |
| 20260831061536 | 54 | 0.0 | 0.0 | 0.00 | 0.00 | 0.00 | 66 | 1014.7 | |
| 20260831060536 | 55 | 0.0 | 0.0 | 0.00 | 0.00 | 0.00 | 65 | 1014.6 | |
| 20260831055536 | 56 | 0.0 | 0.0 | 0.00 | 0.00 | 0.00 | 65 | 1014.7 | |
| 20260831054536 | 57 | 0.0 | 0.0 | 0.00 | 0.00 | 0.00 | 63 | 1014.7 | |
| 20260831053618 | 57 | 0.0 | 0.0 | 0.00 | 0.00 | 0.00 | 63 | 1014.7 | |
| 20260831052536 | 57 | 0.0 | 0.0 | 0.00 | 0.00 | 0.00 | 63 | 1014.8 | |
| 20260831051536 | 58 | 0.0 | 0.0 | 0.00 | 0.00 | 0.00 | 61 | 1014.8 | |
| 20260831050556 | 59 | 0.0 | 0.0 | 0.00 | 0.00 | 0.00 | 60 | 1014.7 | |
| 20260831045536 | 60 | 0.0 | 0.0 | 0.00 | 0.00 | 0.00 | 60 | 1014.7 | |
| 20260831044537 | 60 | 0.0 | 0.0 | 0.00 | 0.00 | 0.00 | 59 | 1014.8 | |
| 20260831043557 | 61 | 0.0 | 0.0 | 0.00 | 0.00 | 0.00 | 57 | 1014.8 | |
| 20260831042537 | 61 | 0.0 | 0.0 | 0.00 | 0.00 | 0.00 | 56 | 1014.8 | |
| 20260831041537 | 62 | 0.0 | 0.0 | 0.00 | 0.00 | 0.00 | 55 | 1014.8 | |
| 20260831040537 | 63 | 0.0 | 0.0 | 0.00 | 0.00 | 0.00 | 50 | 1014.7 | |
| 20260831035537 | 64 | 0.0 | 0.0 | 0.00 | 0.00 | 0.00 | 49 | 1014.7 | |
| 20260831034539 | 64 | 0.0 | 0.0 | 0.00 | 0.00 | 0.00 | 48 | 1014.6 | |
| 20260831033539 | 65 | 0.0 | 0.0 | 0.00 | 0.00 | 0.00 | 45 | 1014.5 | |
| 20260831032539 | 66 | 132 | 3.5 | 4.3 | 0.00 | 0.00 | 0.00 | 44 | 1014.4 |
| 20260831031538 | 67 | 145 | 5.2 | 6.1 | 0.00 | 0.00 | 0.00 | 42 | 1014.3 |
| 20260831030558 | 68 | 149 | 3.5 | 4.3 | 0.00 | 0.00 | 0.00 | 40 | 1014.3 |
| 20260831025559 | 70 | 136 | 3.5 | 5.2 | 0.00 | 0.00 | 0.00 | 38 | 1014.3 |
| 20260831024538 | 72 | 181 | 2.6 | 3.5 | 0.00 | 0.00 | 0.00 | 35 | 1014.1 |
| 20260831023600 | 75 | 0.0 | 0.0 | 0.00 | 0.00 | 0.00 | 39 | 1014.1 | |
| 20260831022540 | 79 | 0.0 | 0.0 | 0.00 | 0.00 | 0.00 | 35 | 1014.0 | |
| 20260831021538 | 82 | 270 | 1.7 | 1.7 | 0.00 | 0.00 | 0.00 | 33 | 1014.0 |
| 20260831020538 | 84 | 0.0 | 0.0 | 0.00 | 0.00 | 0.00 | 29 | 1014.0 | |
| 20260831015539 | 85 | 0.0 | 0.0 | 0.00 | 0.00 | 0.00 | 26 | 1014.1 | |
| 20260831014539 | 86 | 270 | 1.7 | 1.7 | 0.00 | 0.00 | 0.00 | 23 | 1014.0 |
| 20260831013540 | 87 | 250 | 1.7 | 2.6 | 0.00 | 0.00 | 0.00 | 24 | 1014.1 |
| 20260831012539 | 87 | 245 | 0.9 | 2.6 | 0.00 | 0.00 | 0.00 | 25 | 1014.1 |
| 20260831011539 | 87 | 283 | 1.7 | 2.6 | 0.00 | 0.00 | 0.00 | 21 | 1014.1 |
| 20260831010541 | 87 | 23 | 0.0 | 1.7 | 0.00 | 0.00 | 0.00 | 20 | 1014.2 |
| 20260831005601 | 87 | 250 | 1.7 | 3.5 | 0.00 | 0.00 | 0.00 | 24 | 1014.4 |
| 20260831004541 | 86 | 331 | 1.7 | 2.6 | 0.00 | 0.00 | 0.00 | 21 | 1014.3 |
| 20260831003539 | 86 | 270 | 0.9 | 2.6 | 0.00 | 0.00 | 0.00 | 21 | 1014.3 |
| 20260831002600 | 84 | 309 | 0.9 | 2.6 | 0.00 | 0.00 | 0.00 | 23 | 1014.4 |
| 20260831001541 | 83 | 291 | 1.7 | 3.5 | 0.00 | 0.00 | 0.00 | 22 | 1014.4 |
| 20260831000540 | 83 | 326 | 1.7 | 2.6 | 0.00 | 0.00 | 0.00 | 23 | 1014.5 |
| 20260830235541 | 84 | 319 | 2.6 | 4.3 | 0.00 | 0.00 | 0.00 | 24 | 1014.6 |
| 20260830234540 | 83 | 338 | 2.6 | 4.3 | 0.00 | 0.00 | 0.00 | 26 | 1014.7 |
| 20260830233540 | 84 | 293 | 2.6 | 7.8 | 0.00 | 0.00 | 0.00 | 26 | 1014.8 |
| 20260830232541 | 83 | 279 | 3.5 | 4.3 | 0.00 | 0.00 | 0.00 | 27 | 1014.9 |
| 20260830231540 | 81 | 302 | 2.6 | 4.3 | 0.00 | 0.00 | 0.00 | 29 | 1015.0 |
| 20260830230540 | 80 | 99 | 1.7 | 3.5 | 0.00 | 0.00 | 0.00 | 30 | 1015.0 |
| 20260830225541 | 81 | 34 | 2.6 | 5.2 | 0.00 | 0.00 | 0.00 | 29 | 1015.1 |
| 20260830224542 | 81 | 38 | 3.5 | 5.2 | 0.00 | 0.00 | 0.00 | 29 | 1015.2 |
| 20260830223543 | 81 | 304 | 3.5 | 4.3 | 0.00 | 0.00 | 0.00 | 29 | 1015.4 |
| 20260830222541 | 81 | 8 | 1.7 | 5.2 | 0.00 | 0.00 | 0.00 | 29 | 1015.5 |
| 20260830221541 | 80 | 0 | 3.5 | 5.2 | 0.00 | 0.00 | 0.00 | 29 | 1015.5 |
| 20260830220541 | 80 | 321 | 3.5 | 5.2 | 0.00 | 0.00 | 0.00 | 30 | 1015.6 |
| 20260830215541 | 80 | 337 | 3.5 | 6.1 | 0.00 | 0.00 | 0.00 | 31 | 1015.8 |
| 20260830214542 | 80 | 335 | 3.5 | 5.2 | 0.00 | 0.00 | 0.00 | 30 | 1016.0 |
| 20260830213543 | 79 | 341 | 4.3 | 6.1 | 0.00 | 0.00 | 0.00 | 32 | 1016.1 |
| 20260830212542 | 79 | 19 | 5.2 | 6.1 | 0.00 | 0.00 | 0.00 | 32 | 1016.1 |
| 20260830211542 | 79 | 355 | 2.6 | 5.2 | 0.00 | 0.00 | 0.00 | 32 | 1016.2 |
| 20260830210544 | 78 | 73 | 3.5 | 5.2 | 0.00 | 0.00 | 0.00 | 34 | 1016.2 |
| 20260830205544 | 78 | 340 | 3.5 | 5.2 | 0.00 | 0.00 | 0.00 | 34 | 1016.2 |
| 20260830204604 | 77 | 334 | 4.3 | 7.0 | 0.00 | 0.00 | 0.00 | 33 | 1016.3 |
| 20260830203542 | 76 | 334 | 3.5 | 5.2 | 0.00 | 0.00 | 0.00 | 35 | 1016.4 |
| 20260830202544 | 76 | 20 | 3.5 | 4.3 | 0.00 | 0.00 | 0.00 | 37 | 1016.5 |
| 20260830201542 | 75 | 55 | 5.2 | 7.8 | 0.00 | 0.00 | 0.00 | 37 | 1016.5 |
| 20260830200543 | 75 | 20 | 2.6 | 3.5 | 0.00 | 0.00 | 0.00 | 36 | 1016.6 |
| 20260830195543 | 75 | 25 | 4.3 | 6.1 | 0.00 | 0.00 | 0.00 | 37 | 1016.8 |
| 20260830194543 | 75 | 85 | 2.6 | 4.3 | 0.00 | 0.00 | 0.00 | 38 | 1017.0 |
| 20260830193543 | 75 | 308 | 3.5 | 5.2 | 0.00 | 0.00 | 0.00 | 38 | 1017.0 |
| 20260830192543 | 75 | 305 | 3.5 | 4.3 | 0.00 | 0.00 | 0.00 | 38 | 1017.2 |
| 20260830191543 | 75 | 344 | 3.5 | 7.8 | 0.00 | 0.00 | 0.00 | 38 | 1017.3 |
| 20260830190543 | 75 | 244 | 4.3 | 7.0 | 0.00 | 0.00 | 0.00 | 39 | 1017.4 |
| 20260830185605 | 74 | 12 | 3.5 | 5.2 | 0.00 | 0.00 | 0.00 | 38 | 1017.4 |
| 20260830184545 | 72 | 173 | 3.5 | 5.2 | 0.00 | 0.00 | 0.00 | 40 | 1017.6 |
| 20260830183545 | 72 | 134 | 2.6 | 4.3 | 0.00 | 0.00 | 0.00 | 41 | 1017.6 |
| 20260830182544 | 71 | 15 | 5.2 | 6.1 | 0.00 | 0.00 | 0.00 | 42 | 1017.7 |
| 20260830181546 | 71 | 342 | 0.9 | 4.3 | 0.00 | 0.00 | 0.00 | 42 | 1017.8 |
| 20260830180546 | 71 | 331 | 3.5 | 5.2 | 0.00 | 0.00 | 0.00 | 42 | 1017.8 |
| 20260830175606 | 70 | 20 | 4.3 | 5.2 | 0.00 | 0.00 | 0.00 | 44 | 1017.8 |
| 20260830174544 | 70 | 336 | 1.7 | 4.3 | 0.00 | 0.00 | 0.00 | 41 | 1017.9 |
| 20260830173545 | 70 | 354 | 3.5 | 4.3 | 0.00 | 0.00 | 0.00 | 42 | 1017.9 |
| 20260830172605 | 70 | 347 | 2.6 | 3.5 | 0.00 | 0.00 | 0.00 | 41 | 1018.0 |
| 20260830171545 | 70 | 3 | 2.6 | 4.3 | 0.00 | 0.00 | 0.00 | 42 | 1018.0 |
| 20260830170546 | 70 | 147 | 1.7 | 2.6 | 0.00 | 0.00 | 0.00 | 43 | 1018.1 |
| 20260830165546 | 68 | 181 | 0.9 | 1.7 | 0.00 | 0.00 | 0.00 | 45 | 1018.2 |
| 20260830164545 | 67 | 247 | 1.7 | 3.5 | 0.00 | 0.00 | 0.00 | 47 | 1018.3 |
| 20260830163547 | 67 | 277 | 2.6 | 4.3 | 0.00 | 0.00 | 0.00 | 48 | 1018.4 |
| 20260830162545 | 66 | 293 | 1.7 | 3.5 | 0.00 | 0.00 | 0.00 | 51 | 1018.5 |